Wetterdaten: Sonntag, 19.06.2011
Datum Zeit Temp. A. Temp. A. min Temp. A. max Feuchte A. Bod.Feucht 4 Luftdruck Regen Wind Richtung Richtung Sonnenschein ET Solar Taupunkt Windchill Windben Empfang
19.06.2011 00:01 9,5 C 0,0 C 0,0 C 84 % 0 cb 1009,5 hPa 0,0 l/m 0,0 km/h (0 Bft) N-NW 345 0 min 0,000 mm 0 W/m 6,9 C 9,5 C 0,0 km/h (0 Bft) 0,00 %
19.06.2011 00:06 9,5 C 0,0 C 0,0 C 84 % 0 cb 1009,5 hPa 0,0 l/m 3,9 km/h (1 Bft) S-SW 195 0 min 0,000 mm 0 W/m 6,9 C 9,5 C 3,9 km/h (1 Bft) 0,00 %
19.06.2011 00:11 9,5 C 0,0 C 0,0 C 84 % 0 cb 1009,5 hPa 0,0 l/m 0,3 km/h (0 Bft) S-SO 155 0 min 0,000 mm 0 W/m 6,9 C 9,5 C 0,3 km/h (0 Bft) 0,00 %
19.06.2011 00:16 9,6 C 0,0 C 0,0 C 84 % 0 cb 1009,5 hPa 0,0 l/m 0,0 km/h (0 Bft) SW 225 0 min 0,000 mm 0 W/m 7,0 C 9,6 C 0,0 km/h (0 Bft) 0,00 %
19.06.2011 00:21 9,6 C 0,0 C 0,0 C 84 % 0 cb 1009,5 hPa 0,0 l/m 5,1 km/h (1 Bft) W-SW 250 0 min 0,000 mm 0 W/m 7,0 C 9,3 C 5,1 km/h (1 Bft) 0,00 %
19.06.2011 00:26 9,5 C 0,0 C 0,0 C 84 % 0 cb 1009,5 hPa 0,0 l/m 0,0 km/h (0 Bft) W-NW 285 0 min 0,000 mm 0 W/m 6,9 C 9,5 C 0,0 km/h (0 Bft) 0,00 %
19.06.2011 00:31 9,5 C 0,0 C 0,0 C 84 % 0 cb 1009,5 hPa 0,0 l/m 0,0 km/h (0 Bft) W 260 0 min 0,000 mm 0 W/m 6,9 C 9,5 C 0,0 km/h (0 Bft) 0,00 %
19.06.2011 00:36 9,6 C 0,0 C 0,0 C 84 % 0 cb 1009,5 hPa 0,0 l/m 2,4 km/h (1 Bft) S 170 0 min 0,000 mm 0 W/m 7,0 C 9,6 C 2,4 km/h (1 Bft) 0,00 %
19.06.2011 00:41 9,6 C 0,0 C 0,0 C 84 % 0 cb 1009,5 hPa 0,0 l/m 7,3 km/h (2 Bft) SW 235 0 min 0,000 mm 0 W/m 7,0 C 8,7 C 7,3 km/h (2 Bft) 0,00 %
19.06.2011 00:46 9,6 C 0,0 C 0,0 C 84 % 0 cb 1009,5 hPa 0,0 l/m 8,5 km/h (2 Bft) SW 235 0 min 0,000 mm 0 W/m 7,0 C 8,4 C 8,5 km/h (2 Bft) 0,00 %
19.06.2011 00:51 9,6 C 0,0 C 0,0 C 84 % 0 cb 1009,5 hPa 0,0 l/m 5,4 km/h (1 Bft) S 180 0 min 0,000 mm 0 W/m 7,0 C 9,2 C 5,4 km/h (1 Bft) 0,00 %
19.06.2011 00:56 9,6 C 0,0 C 0,0 C 84 % 0 cb 1009,5 hPa 0,0 l/m 3,0 km/h (1 Bft) W-SW 250 0 min 0,000 mm 0 W/m 7,0 C 9,6 C 3,0 km/h (1 Bft) 0,00 %
19.06.2011 01:01 9,6 C 0,0 C 0,0 C 84 % 0 cb 1009,5 hPa 0,0 l/m 0,3 km/h (0 Bft) W 260 0 min 0,000 mm 0 W/m 7,0 C 9,6 C 0,3 km/h (0 Bft) 0,00 %
19.06.2011 01:06 9,5 C 0,0 C 0,0 C 84 % 0 cb 1009,5 hPa 0,0 l/m 3,0 km/h (1 Bft) W-SW 255 0 min 0,000 mm 0 W/m 6,9 C 9,5 C 3,0 km/h (1 Bft) 0,00 %
19.06.2011 01:11 9,6 C 0,0 C 0,0 C 84 % 0 cb 1009,5 hPa 0,0 l/m 3,6 km/h (1 Bft) NW 325 0 min 0,000 mm 0 W/m 7,0 C 9,6 C 3,6 km/h (1 Bft) 0,00 %
19.06.2011 01:16 9,5 C 0,0 C 0,0 C 84 % 0 cb 1009,5 hPa 0,0 l/m 0,0 km/h (0 Bft) S 170 0 min 0,000 mm 0 W/m 6,9 C 9,5 C 0,0 km/h (0 Bft) 0,00 %
19.06.2011 01:21 9,6 C 0,0 C 0,0 C 84 % 0 cb 1009,5 hPa 0,0 l/m 3,0 km/h (1 Bft) W 265 0 min 0,000 mm 0 W/m 7,0 C 9,6 C 3,0 km/h (1 Bft) 0,00 %
19.06.2011 01:26 9,6 C 0,0 C 0,0 C 84 % 0 cb 1009,5 hPa 0,0 l/m 6,7 km/h (2 Bft) SW 235 0 min 0,000 mm 0 W/m 7,0 C 8,8 C 6,7 km/h (2 Bft) 0,00 %
19.06.2011 01:31 9,6 C 0,0 C 0,0 C 84 % 0 cb 1009,5 hPa 0,0 l/m 3,9 km/h (1 Bft) W-NW 285 0 min 0,000 mm 0 W/m 7,0 C 9,6 C 3,9 km/h (1 Bft) 0,00 %
19.06.2011 01:36 9,7 C 0,0 C 0,0 C 84 % 0 cb 1009,5 hPa 0,0 l/m 7,0 km/h (2 Bft) W 275 0 min 0,000 mm 0 W/m 7,1 C 8,9 C 7,0 km/h (2 Bft) 0,00 %
19.06.2011 01:41 9,7 C 0,0 C 0,0 C 84 % 0 cb 1009,5 hPa 0,0 l/m 6,7 km/h (2 Bft) SO 140 0 min 0,000 mm 0 W/m 7,1 C 8,9 C 6,7 km/h (2 Bft) 0,00 %
19.06.2011 01:46 9,8 C 0,0 C 0,0 C 84 % 0 cb 1009,5 hPa 0,0 l/m 7,9 km/h (2 Bft) S 190 0 min 0,000 mm 0 W/m 7,2 C 8,8 C 7,9 km/h (2 Bft) 0,00 %
19.06.2011 01:51 9,8 C 0,0 C 0,0 C 84 % 0 cb 1009,5 hPa 0,0 l/m 7,3 km/h (2 Bft) W-NW 290 0 min 0,000 mm 0 W/m 7,2 C 8,9 C 7,3 km/h (2 Bft) 0,00 %
19.06.2011 01:56 10,0 C 0,0 C 0,0 C 84 % 0 cb 1009,5 hPa 0,0 l/m 8,5 km/h (2 Bft) W-SW 240 0 min 0,000 mm 0 W/m 7,4 C 8,9 C 8,5 km/h (2 Bft) 0,00 %
19.06.2011 02:01 10,0 C 0,0 C 0,0 C 84 % 0 cb 1009,5 hPa 0,0 l/m 7,3 km/h (2 Bft) N 355 0 min 0,000 mm 0 W/m 7,4 C 9,2 C 7,3 km/h (2 Bft) 0,00 %
19.06.2011 02:06 10,0 C 0,0 C 0,0 C 83 % 0 cb 1009,5 hPa 0,0 l/m 11,8 km/h (2 Bft) N-NW 340 0 min 0,000 mm 0 W/m 7,2 C 8,3 C 11,8 km/h (2 Bft) 0,00 %
19.06.2011 02:11 9,9 C 0,0 C 0,0 C 83 % 0 cb 1009,5 hPa 0,0 l/m 14,2 km/h (3 Bft) NW 320 0 min 0,000 mm 0 W/m 7,2 C 7,9 C 14,2 km/h (3 Bft) 0,00 %
19.06.2011 02:16 9,9 C 0,0 C 0,0 C 83 % 0 cb 1009,5 hPa 0,0 l/m 3,6 km/h (1 Bft) S-SW 195 0 min 0,000 mm 0 W/m 7,2 C 9,9 C 3,6 km/h (1 Bft) 0,00 %
19.06.2011 02:21 9,9 C 0,0 C 0,0 C 83 % 0 cb 1009,5 hPa 0,0 l/m 6,7 km/h (2 Bft) W-SW 240 0 min 0,000 mm 0 W/m 7,2 C 9,2 C 6,7 km/h (2 Bft) 0,00 %
19.06.2011 02:26 9,9 C 0,0 C 0,0 C 83 % 0 cb 1009,5 hPa 0,0 l/m 6,4 km/h (2 Bft) SW 235 0 min 0,000 mm 0 W/m 7,2 C 9,3 C 6,4 km/h (2 Bft) 0,00 %
19.06.2011 02:31 10,0 C 0,0 C 0,0 C 83 % 0 cb 1009,5 hPa 0,0 l/m 8,5 km/h (2 Bft) W 260 0 min 0,000 mm 0 W/m 7,2 C 8,9 C 8,5 km/h (2 Bft) 0,00 %
19.06.2011 02:36 10,0 C 0,0 C 0,0 C 83 % 0 cb 1009,5 hPa 0,0 l/m 10,0 km/h (2 Bft) W 260 0 min 0,000 mm 0 W/m 7,2 C 8,6 C 10,0 km/h (2 Bft) 0,00 %
19.06.2011 02:41 10,0 C 0,0 C 0,0 C 83 % 0 cb 1009,5 hPa 0,0 l/m 9,7 km/h (2 Bft) SW 230 0 min 0,000 mm 0 W/m 7,2 C 8,7 C 9,7 km/h (2 Bft) 0,00 %
19.06.2011 02:46 9,9 C 0,0 C 0,0 C 83 % 0 cb 1009,5 hPa 0,0 l/m 12,1 km/h (2 Bft) W-SW 250 0 min 0,000 mm 0 W/m 7,2 C 8,2 C 12,1 km/h (2 Bft) 0,00 %
19.06.2011 02:51 9,9 C 0,0 C 0,0 C 83 % 0 cb 1009,5 hPa 0,0 l/m 7,0 km/h (2 Bft) W-NW 295 0 min 0,000 mm 0 W/m 7,2 C 9,1 C 7,0 km/h (2 Bft) 0,00 %
19.06.2011 02:56 9,8 C 0,0 C 0,0 C 83 % 0 cb 1009,5 hPa 0,0 l/m 4,8 km/h (1 Bft) NO 35 0 min 0,000 mm 0 W/m 7,1 C 9,6 C 4,8 km/h (1 Bft) 0,00 %
19.06.2011 03:01 9,8 C 0,0 C 0,0 C 83 % 0 cb 1009,5 hPa 0,0 l/m 4,2 km/h (1 Bft) SW 230 0 min 0,000 mm 0 W/m 7,1 C 9,8 C 4,2 km/h (1 Bft) 0,00 %
19.06.2011 03:06 9,6 C 0,0 C 0,0 C 84 % 0 cb 1009,5 hPa 0,0 l/m 7,6 km/h (2 Bft) SO 140 0 min 0,000 mm 0 W/m 7,0 C 8,6 C 7,6 km/h (2 Bft) 0,00 %
19.06.2011 03:11 9,6 C 0,0 C 0,0 C 84 % 0 cb 1009,5 hPa 0,0 l/m 6,7 km/h (2 Bft) W-SW 255 0 min 0,000 mm 0 W/m 7,0 C 8,8 C 6,7 km/h (2 Bft) 0,00 %
19.06.2011 03:16 9,6 C 0,0 C 0,0 C 84 % 0 cb 1009,5 hPa 0,0 l/m 4,8 km/h (1 Bft) W-SW 240 0 min 0,000 mm 0 W/m 7,0 C 9,4 C 4,8 km/h (1 Bft) 0,00 %
19.06.2011 03:21 9,6 C 0,0 C 0,0 C 84 % 0 cb 1009,5 hPa 0,0 l/m 4,8 km/h (1 Bft) W-SW 255 0 min 0,000 mm 0 W/m 7,0 C 9,4 C 4,8 km/h (1 Bft) 0,00 %
19.06.2011 03:26 9,6 C 0,0 C 0,0 C 84 % 0 cb 1009,5 hPa 0,0 l/m 3,3 km/h (1 Bft) W-NW 290 0 min 0,000 mm 0 W/m 7,0 C 9,6 C 3,3 km/h (1 Bft) 0,00 %
19.06.2011 03:31 9,6 C 0,0 C 0,0 C 84 % 0 cb 1009,5 hPa 0,0 l/m 5,1 km/h (1 Bft) N 5 0 min 0,000 mm 0 W/m 7,0 C 9,3 C 5,1 km/h (1 Bft) 0,00 %
19.06.2011 03:36 9,7 C 0,0 C 0,0 C 84 % 0 cb 1009,5 hPa 0,0 l/m 8,8 km/h (2 Bft) W-SW 255 0 min 0,000 mm 0 W/m 7,1 C 8,5 C 8,8 km/h (2 Bft) 0,00 %
19.06.2011 03:41 9,7 C 0,0 C 0,0 C 84 % 0 cb 1009,5 hPa 0,0 l/m 7,0 km/h (2 Bft) W-SW 245 0 min 0,000 mm 0 W/m 7,1 C 8,9 C 7,0 km/h (2 Bft) 0,00 %
19.06.2011 03:46 9,7 C 0,0 C 0,0 C 84 % 0 cb 1009,5 hPa 0,0 l/m 5,7 km/h (1 Bft) W 280 0 min 0,000 mm 0 W/m 7,1 C 9,2 C 5,7 km/h (1 Bft) 0,00 %
19.06.2011 03:51 9,7 C 0,0 C 0,0 C 84 % 0 cb 1009,5 hPa 0,0 l/m 7,9 km/h (2 Bft) SW 235 0 min 0,000 mm 0 W/m 7,1 C 8,7 C 7,9 km/h (2 Bft) 0,00 %
19.06.2011 03:56 9,7 C 0,0 C 0,0 C 84 % 0 cb 1008,5 hPa 0,0 l/m 8,5 km/h (2 Bft) W-SW 245 0 min 0,000 mm 0 W/m 7,1 C 8,6 C 8,5 km/h (2 Bft) 0,00 %
19.06.2011 04:01 9,8 C 0,0 C 0,0 C 84 % 0 cb 1008,5 hPa 0,0 l/m 12,1 km/h (2 Bft) W-NW 300 0 min 0,000 mm 0 W/m 7,2 C 8,1 C 12,1 km/h (2 Bft) 0,00 %
19.06.2011 04:06 9,9 C 0,0 C 0,0 C 84 % 0 cb 1008,5 hPa 0,0 l/m 7,3 km/h (2 Bft) SO 140 0 min 0,000 mm 0 W/m 7,3 C 9,0 C 7,3 km/h (2 Bft) 0,00 %
19.06.2011 04:11 9,9 C 0,0 C 0,0 C 84 % 0 cb 1009,5 hPa 0,0 l/m 8,8 km/h (2 Bft) SO 145 0 min 0,000 mm 0 W/m 7,3 C 8,7 C 8,8 km/h (2 Bft) 0,00 %
19.06.2011 04:16 9,9 C 0,0 C 0,0 C 83 % 0 cb 1009,5 hPa 0,0 l/m 11,2 km/h (2 Bft) SW 230 0 min 0,000 mm 0 W/m 7,2 C 8,3 C 11,2 km/h (2 Bft) 0,00 %
19.06.2011 04:21 9,9 C 0,0 C 0,0 C 84 % 0 cb 1009,5 hPa 0,0 l/m 9,1 km/h (2 Bft) W 260 0 min 0,000 mm 0 W/m 7,3 C 8,7 C 9,1 km/h (2 Bft) 0,00 %
19.06.2011 04:26 9,9 C 0,0 C 0,0 C 83 % 0 cb 1009,5 hPa 0,0 l/m 6,1 km/h (2 Bft) W 260 0 min 0,000 mm 0 W/m 7,2 C 9,3 C 6,1 km/h (2 Bft) 0,00 %
19.06.2011 04:31 10,0 C 0,0 C 0,0 C 83 % 0 cb 1009,5 hPa 0,0 l/m 16,3 km/h (3 Bft) W-SW 245 0 min 0,000 mm 0 W/m 7,2 C 7,8 C 16,3 km/h (3 Bft) 0,00 %
19.06.2011 04:36 10,0 C 0,0 C 0,0 C 83 % 0 cb 1009,5 hPa 0,0 l/m 11,5 km/h (2 Bft) W-SW 255 0 min 0,000 mm 0 W/m 7,2 C 8,4 C 11,5 km/h (2 Bft) 0,00 %
19.06.2011 04:41 9,9 C 0,0 C 0,0 C 83 % 0 cb 1009,5 hPa 0,0 l/m 12,1 km/h (2 Bft) S 190 0 min 0,000 mm 0 W/m 7,2 C 8,2 C 12,1 km/h (2 Bft) 0,00 %
19.06.2011 04:46 9,9 C 0,0 C 0,0 C 83 % 0 cb 1009,5 hPa 0,0 l/m 14,5 km/h (3 Bft) S-SW 195 0 min 0,000 mm 0 W/m 7,2 C 7,9 C 14,5 km/h (3 Bft) 0,00 %
19.06.2011 04:51 10,0 C 0,0 C 0,0 C 83 % 0 cb 1009,5 hPa 0,0 l/m 11,8 km/h (2 Bft) S-SW 195 0 min 0,000 mm 0 W/m 7,2 C 8,3 C 11,8 km/h (2 Bft) 0,00 %
19.06.2011 04:56 10,0 C 0,0 C 0,0 C 83 % 0 cb 1009,5 hPa 0,0 l/m 5,4 km/h (1 Bft) SW 225 0 min 0,000 mm 0 W/m 7,2 C 9,6 C 5,4 km/h (1 Bft) 0,00 %
19.06.2011 05:01 10,0 C 0,0 C 0,0 C 83 % 0 cb 1009,5 hPa 0,0 l/m 10,3 km/h (2 Bft) W-SW 255 0 min 0,000 mm 0 W/m 7,2 C 8,6 C 10,3 km/h (2 Bft) 0,00 %
19.06.2011 05:06 10,0 C 0,0 C 0,0 C 83 % 0 cb 1009,5 hPa 0,0 l/m 15,1 km/h (3 Bft) N-NW 340 0 min 0,000 mm 0 W/m 7,2 C 7,9 C 15,1 km/h (3 Bft) 0,00 %
19.06.2011 05:11 9,9 C 0,0 C 0,0 C 83 % 0 cb 1009,5 hPa 0,0 l/m 9,4 km/h (2 Bft) S-SW 200 0 min 0,000 mm 0 W/m 7,2 C 8,6 C 9,4 km/h (2 Bft) 0,00 %
19.06.2011 05:16 9,9 C 0,0 C 0,0 C 83 % 0 cb 1009,5 hPa 0,0 l/m 12,4 km/h (3 Bft) W-NW 295 0 min 0,000 mm 0 W/m 7,2 C 8,1 C 12,4 km/h (3 Bft) 0,00 %
19.06.2011 05:21 9,8 C 0,0 C 0,0 C 83 % 0 cb 1009,5 hPa 0,0 l/m 10,9 km/h (2 Bft) W-NW 285 0 min 0,000 mm 0 W/m 7,1 C 8,2 C 10,9 km/h (2 Bft) 0,00 %
19.06.2011 05:26 9,8 C 0,0 C 0,0 C 83 % 0 cb 1009,5 hPa 0,0 l/m 10,9 km/h (2 Bft) NW 320 0 min 0,000 mm 0 W/m 7,1 C 8,2 C 10,9 km/h (2 Bft) 0,00 %
19.06.2011 05:31 9,8 C 0,0 C 0,0 C 83 % 0 cb 1009,5 hPa 0,0 l/m 13,9 km/h (3 Bft) W 265 0 min 0,000 mm 0 W/m 7,1 C 7,8 C 13,9 km/h (3 Bft) 0,00 %
19.06.2011 05:36 9,8 C 0,0 C 0,0 C 83 % 0 cb 1009,5 hPa 0,0 l/m 5,7 km/h (1 Bft) S 190 0 min 0,000 mm 0 W/m 7,1 C 9,3 C 5,7 km/h (1 Bft) 0,00 %
19.06.2011 05:41 9,7 C 0,0 C 0,0 C 83 % 0 cb 1009,5 hPa 0,0 l/m 10,9 km/h (2 Bft) S-SW 200 0 min 0,000 mm 0 W/m 7,0 C 8,1 C 10,9 km/h (2 Bft) 0,00 %
19.06.2011 05:46 9,8 C 0,0 C 0,0 C 83 % 0 cb 1009,5 hPa 0,0 l/m 18,2 km/h (3 Bft) W-NW 290 0 min 0,000 mm 0 W/m 7,1 C 7,3 C 18,2 km/h (3 Bft) 0,00 %
19.06.2011 05:51 9,8 C 0,0 C 0,0 C 83 % 0 cb 1009,5 hPa 0,0 l/m 11,8 km/h (2 Bft) S-SW 195 0 min 0,000 mm 0 W/m 7,1 C 8,1 C 11,8 km/h (2 Bft) 0,00 %
19.06.2011 05:56 9,8 C 0,0 C 0,0 C 83 % 0 cb 1009,5 hPa 0,0 l/m 10,3 km/h (2 Bft) SW 230 0 min 0,000 mm 0 W/m 7,1 C 8,3 C 10,3 km/h (2 Bft) 0,00 %
19.06.2011 06:01 9,9 C 0,0 C 0,0 C 83 % 0 cb 1009,5 hPa 0,0 l/m 13,6 km/h (3 Bft) W 280 0 min 0,000 mm 0 W/m 7,2 C 8,0 C 13,6 km/h (3 Bft) 0,00 %
19.06.2011 06:06 9,9 C 0,0 C 0,0 C 83 % 0 cb 1009,5 hPa 0,0 l/m 9,7 km/h (2 Bft) W-SW 250 0 min 0,000 mm 0 W/m 7,2 C 8,6 C 9,7 km/h (2 Bft) 0,00 %
19.06.2011 06:11 9,8 C 0,0 C 0,0 C 83 % 0 cb 1009,5 hPa 0,0 l/m 9,7 km/h (2 Bft) S-SO 155 0 min 0,000 mm 0 W/m 7,1 C 8,4 C 9,7 km/h (2 Bft) 0,00 %
19.06.2011 06:16 9,9 C 0,0 C 0,0 C 82 % 0 cb 1009,5 hPa 0,0 l/m 16,3 km/h (3 Bft) SW 225 0 min 0,000 mm 0 W/m 7,0 C 7,6 C 16,3 km/h (3 Bft) 0,00 %
19.06.2011 06:21 10,0 C 0,0 C 0,0 C 82 % 0 cb 1009,5 hPa 0,0 l/m 13,3 km/h (3 Bft) S-SW 205 0 min 0,000 mm 0 W/m 7,1 C 8,1 C 13,3 km/h (3 Bft) 0,00 %
19.06.2011 06:26 10,0 C 0,0 C 0,0 C 82 % 0 cb 1009,5 hPa 0,0 l/m 16,6 km/h (3 Bft) SW 220 0 min 0,000 mm 0 W/m 7,1 C 7,7 C 16,6 km/h (3 Bft) 0,00 %
19.06.2011 06:31 10,0 C 0,0 C 0,0 C 82 % 0 cb 1009,5 hPa 0,0 l/m 15,1 km/h (3 Bft) SW 215 0 min 0,000 mm 0 W/m 7,1 C 7,9 C 15,1 km/h (3 Bft) 0,00 %
19.06.2011 06:36 10,1 C 0,0 C 0,0 C 82 % 0 cb 1009,5 hPa 0,0 l/m 12,1 km/h (2 Bft) N-NW 340 0 min 0,000 mm 0 W/m 7,2 C 10,1 C 12,1 km/h (2 Bft) 0,00 %
19.06.2011 06:41 10,0 C 0,0 C 0,0 C 82 % 0 cb 1008,5 hPa 0,0 l/m 13,3 km/h (3 Bft) SO 145 0 min 0,000 mm 0 W/m 7,1 C 8,1 C 13,3 km/h (3 Bft) 0,00 %
19.06.2011 06:46 10,2 C 0,0 C 0,0 C 82 % 0 cb 1008,5 hPa 0,0 l/m 12,7 km/h (3 Bft) W-SW 255 0 min 0,000 mm 0 W/m 7,3 C 10,2 C 12,7 km/h (3 Bft) 0,00 %
19.06.2011 06:51 10,1 C 0,0 C 0,0 C 81 % 0 cb 1008,5 hPa 0,0 l/m 9,7 km/h (2 Bft) W-NW 285 0 min 0,000 mm 0 W/m 7,0 C 10,1 C 9,7 km/h (2 Bft) 0,00 %
19.06.2011 06:56 10,2 C 0,0 C 0,0 C 82 % 0 cb 1009,5 hPa 0,0 l/m 13,9 km/h (3 Bft) S-SO 165 0 min 0,000 mm 0 W/m 7,3 C 10,2 C 13,9 km/h (3 Bft) 0,00 %
19.06.2011 07:01 10,1 C 0,0 C 0,0 C 81 % 0 cb 1009,5 hPa 0,0 l/m 16,6 km/h (3 Bft) S 190 0 min 0,000 mm 0 W/m 7,0 C 10,1 C 16,6 km/h (3 Bft) 0,00 %
19.06.2011 07:06 10,1 C 0,0 C 0,0 C 81 % 0 cb 1009,5 hPa 0,0 l/m 15,4 km/h (3 Bft) S-SW 200 0 min 0,000 mm 0 W/m 7,0 C 10,1 C 15,4 km/h (3 Bft) 0,00 %
19.06.2011 07:11 10,1 C 0,0 C 0,0 C 81 % 0 cb 1009,5 hPa 0,0 l/m 15,7 km/h (3 Bft) O 90 0 min 0,000 mm 0 W/m 7,0 C 10,1 C 15,7 km/h (3 Bft) 0,00 %
19.06.2011 07:16 10,0 C 0,0 C 0,0 C 81 % 0 cb 1009,5 hPa 0,0 l/m 19,7 km/h (3 Bft) W-SW 255 0 min 0,000 mm 0 W/m 6,9 C 7,4 C 19,7 km/h (3 Bft) 0,00 %
19.06.2011 07:21 10,1 C 0,0 C 0,0 C 81 % 0 cb 1009,5 hPa 0,0 l/m 21,5 km/h (4 Bft) SW 230 0 min 0,000 mm 0 W/m 7,0 C 10,1 C 21,5 km/h (4 Bft) 0,00 %
19.06.2011 07:26 10,1 C 0,0 C 0,0 C 81 % 0 cb 1009,5 hPa 0,0 l/m 14,2 km/h (3 Bft) W 265 0 min 0,000 mm 0 W/m 7,0 C 10,1 C 14,2 km/h (3 Bft) 0,00 %
19.06.2011 07:31 10,1 C 0,0 C 0,0 C 81 % 0 cb 1009,5 hPa 0,0 l/m 13,3 km/h (3 Bft) SW 220 0 min 0,000 mm 0 W/m 7,0 C 10,1 C 13,3 km/h (3 Bft) 0,00 %
19.06.2011 07:36 10,1 C 0,0 C 0,0 C 81 % 0 cb 1009,5 hPa 0,0 l/m 12,1 km/h (2 Bft) SW 230 0 min 0,000 mm 0 W/m 7,0 C 10,1 C 12,1 km/h (2 Bft) 0,00 %
19.06.2011 07:41 10,2 C 0,0 C 0,0 C 81 % 0 cb 1009,5 hPa 0,0 l/m 13,6 km/h (3 Bft) O-SO 105 0 min 0,000 mm 0 W/m 7,1 C 10,2 C 13,6 km/h (3 Bft) 0,00 %
19.06.2011 07:46 10,2 C 0,0 C 0,0 C 80 % 0 cb 1009,5 hPa 0,0 l/m 10,0 km/h (2 Bft) W-NW 285 0 min 0,000 mm 0 W/m 6,9 C 10,2 C 10,0 km/h (2 Bft) 0,00 %
19.06.2011 07:51 10,1 C 0,0 C 0,0 C 80 % 0 cb 1009,5 hPa 0,0 l/m 18,2 km/h (3 Bft) S-SO 155 0 min 0,000 mm 0 W/m 6,8 C 10,1 C 18,2 km/h (3 Bft) 0,00 %
19.06.2011 07:56 10,1 C 0,0 C 0,0 C 80 % 0 cb 1009,5 hPa 0,0 l/m 15,7 km/h (3 Bft) S 185 0 min 0,000 mm 0 W/m 6,8 C 10,1 C 15,7 km/h (3 Bft) 0,00 %
19.06.2011 08:01 10,1 C 0,0 C 0,0 C 80 % 0 cb 1009,5 hPa 0,0 l/m 16,3 km/h (3 Bft) S-SO 165 0 min 0,000 mm 0 W/m 6,8 C 10,1 C 16,3 km/h (3 Bft) 0,00 %
19.06.2011 08:06 10,1 C 0,0 C 0,0 C 80 % 0 cb 1009,5 hPa 0,0 l/m 15,4 km/h (3 Bft) SW 235 0 min 0,000 mm 0 W/m 6,8 C 10,1 C 15,4 km/h (3 Bft) 0,00 %
19.06.2011 08:11 10,1 C 0,0 C 0,0 C 80 % 0 cb 1009,5 hPa 0,0 l/m 15,4 km/h (3 Bft) NO 55 0 min 0,000 mm 0 W/m 6,8 C 10,1 C 15,4 km/h (3 Bft) 0,00 %
19.06.2011 08:16 10,0 C 0,0 C 0,0 C 81 % 0 cb 1009,5 hPa 0,0 l/m 15,4 km/h (3 Bft) S 190 0 min 0,000 mm 0 W/m 6,9 C 7,9 C 15,4 km/h (3 Bft) 0,00 %
19.06.2011 08:21 10,0 C 0,0 C 0,0 C 81 % 0 cb 1009,5 hPa 0,0 l/m 27,3 km/h (4 Bft) W-SW 250 0 min 0,000 mm 0 W/m 6,9 C 6,8 C 27,3 km/h (4 Bft) 0,00 %
19.06.2011 08:26 9,9 C 0,0 C 0,0 C 82 % 0 cb 1010,5 hPa 0,0 l/m 10,9 km/h (2 Bft) N 355 0 min 0,000 mm 0 W/m 7,0 C 8,4 C 10,9 km/h (2 Bft) 0,00 %
19.06.2011 08:31 10,0 C 0,0 C 0,0 C 81 % 0 cb 1010,5 hPa 0,0 l/m 16,3 km/h (3 Bft) W-SW 245 0 min 0,000 mm 0 W/m 6,9 C 7,8 C 16,3 km/h (3 Bft) 0,00 %
19.06.2011 08:36 10,1 C 0,0 C 0,0 C 81 % 0 cb 1010,5 hPa 0,0 l/m 16,6 km/h (3 Bft) W-NW 295 0 min 0,000 mm 0 W/m 7,0 C 10,1 C 16,6 km/h (3 Bft) 0,00 %
19.06.2011 08:41 10,2 C 0,0 C 0,0 C 81 % 0 cb 1010,5 hPa 0,0 l/m 16,6 km/h (3 Bft) W 260 0 min 0,000 mm 0 W/m 7,1 C 10,2 C 16,6 km/h (3 Bft) 0,00 %
19.06.2011 08:46 10,5 C 0,0 C 0,0 C 80 % 0 cb 1010,5 hPa 0,0 l/m 15,4 km/h (3 Bft) W-NW 295 0 min 0,000 mm 0 W/m 7,2 C 10,5 C 15,4 km/h (3 Bft) 0,00 %
19.06.2011 08:51 10,6 C 0,0 C 0,0 C 80 % 0 cb 1010,5 hPa 0,0 l/m 13,9 km/h (3 Bft) W-SW 240 0 min 0,000 mm 0 W/m 7,3 C 10,6 C 13,9 km/h (3 Bft) 0,00 %
19.06.2011 08:56 10,6 C 0,0 C 0,0 C 79 % 0 cb 1010,5 hPa 0,0 l/m 14,8 km/h (3 Bft) S-SW 210 0 min 0,000 mm 0 W/m 7,1 C 10,6 C 14,8 km/h (3 Bft) 0,00 %
19.06.2011 09:01 10,7 C 0,0 C 0,0 C 79 % 0 cb 1010,5 hPa 0,0 l/m 20,0 km/h (4 Bft) S 190 0 min 0,000 mm 0 W/m 7,2 C 10,7 C 20,0 km/h (4 Bft) 0,00 %
19.06.2011 09:06 10,8 C 0,0 C 0,0 C 79 % 0 cb 1010,5 hPa 0,0 l/m 13,6 km/h (3 Bft) SO 140 0 min 0,000 mm 0 W/m 7,3 C 10,8 C 13,6 km/h (3 Bft) 0,00 %
19.06.2011 09:11 11,0 C 0,0 C 0,0 C 79 % 2 cb 1010,5 hPa 0,0 l/m 11,8 km/h (2 Bft) S-SW 205 0 min 0,000 mm 0 W/m 7,5 C 11,0 C 11,8 km/h (2 Bft) 0,00 %
19.06.2011 09:16 11,0 C 0,0 C 0,0 C 78 % 1 cb 1010,5 hPa 0,0 l/m 18,8 km/h (3 Bft) W-SW 250 0 min 0,000 mm 0 W/m 7,3 C 11,0 C 18,8 km/h (3 Bft) 0,00 %
19.06.2011 09:21 10,7 C 0,0 C 0,0 C 79 % 0 cb 1010,5 hPa 0,0 l/m 17,2 km/h (3 Bft) W 270 0 min 0,000 mm 0 W/m 7,2 C 10,7 C 17,2 km/h (3 Bft) 0,00 %
19.06.2011 09:26 10,9 C 0,0 C 0,0 C 79 % 0 cb 1010,5 hPa 0,0 l/m 9,4 km/h (2 Bft) W-SW 245 0 min 0,000 mm 0 W/m 7,4 C 10,9 C 9,4 km/h (2 Bft) 0,00 %
19.06.2011 09:31 11,0 C 0,0 C 0,0 C 79 % 3 cb 1010,5 hPa 0,0 l/m 12,4 km/h (3 Bft) S-SW 205 0 min 0,000 mm 0 W/m 7,5 C 11,0 C 12,4 km/h (3 Bft) 0,00 %
19.06.2011 09:36 11,2 C 0,0 C 0,0 C 78 % 3 cb 1010,5 hPa 0,0 l/m 22,1 km/h (4 Bft) S-SW 210 0 min 0,000 mm 0 W/m 7,5 C 11,2 C 22,1 km/h (4 Bft) 0,00 %
19.06.2011 09:41 11,2 C 0,0 C 0,0 C 79 % 3 cb 1010,5 hPa 0,0 l/m 17,6 km/h (3 Bft) S-SO 150 0 min 0,000 mm 0 W/m 7,7 C 11,2 C 17,6 km/h (3 Bft) 0,00 %
19.06.2011 09:46 11,3 C 0,0 C 0,0 C 78 % 4 cb 1010,5 hPa 0,0 l/m 21,5 km/h (4 Bft) S 180 0 min 0,000 mm 0 W/m 7,6 C 11,3 C 21,5 km/h (4 Bft) 0,00 %
19.06.2011 09:51 11,3 C 0,0 C 0,0 C 78 % 7 cb 1010,5 hPa 0,0 l/m 15,1 km/h (3 Bft) W-SW 245 0 min 0,000 mm 0 W/m 7,6 C 11,3 C 15,1 km/h (3 Bft) 0,00 %
19.06.2011 09:56 11,0 C 0,0 C 0,0 C 78 % 0 cb 1010,5 hPa 0,0 l/m 18,8 km/h (3 Bft) NW 320 0 min 0,000 mm 0 W/m 7,3 C 11,0 C 18,8 km/h (3 Bft) 0,00 %
19.06.2011 10:01 10,6 C 0,0 C 0,0 C 80 % 0 cb 1010,5 hPa 0,0 l/m 13,9 km/h (3 Bft) W-SW 240 0 min 0,000 mm 0 W/m 7,3 C 10,6 C 13,9 km/h (3 Bft) 0,00 %
19.06.2011 10:06 10,5 C 0,0 C 0,0 C 81 % 0 cb 1010,5 hPa 0,3 l/m 19,4 km/h (3 Bft) W-SW 250 0 min 0,000 mm 0 W/m 7,4 C 10,5 C 19,4 km/h (3 Bft) 0,00 %
19.06.2011 10:11 10,4 C 0,0 C 0,0 C 81 % 0 cb 1011,5 hPa 0,0 l/m 12,1 km/h (2 Bft) SW 235 0 min 0,000 mm 0 W/m 7,3 C 10,4 C 12,1 km/h (2 Bft) 0,00 %
19.06.2011 10:16 10,3 C 0,0 C 0,0 C 82 % 0 cb 1011,5 hPa 0,3 l/m 13,9 km/h (3 Bft) W-NW 295 0 min 0,000 mm 0 W/m 7,4 C 10,3 C 13,9 km/h (3 Bft) 0,00 %
19.06.2011 10:21 10,3 C 0,0 C 0,0 C 82 % 0 cb 1011,5 hPa 0,0 l/m 13,3 km/h (3 Bft) W-SW 255 0 min 0,000 mm 0 W/m 7,4 C 10,3 C 13,3 km/h (3 Bft) 0,00 %
19.06.2011 10:26 10,2 C 0,0 C 0,0 C 82 % 0 cb 1011,5 hPa 0,3 l/m 13,3 km/h (3 Bft) S 190 0 min 0,000 mm 0 W/m 7,3 C 10,2 C 13,3 km/h (3 Bft) 0,00 %
19.06.2011 10:31 10,2 C 0,0 C 0,0 C 82 % 0 cb 1011,5 hPa 0,0 l/m 21,2 km/h (4 Bft) S 180 0 min 0,000 mm 0 W/m 7,3 C 10,2 C 21,2 km/h (4 Bft) 0,00 %
19.06.2011 10:36 10,5 C 0,0 C 0,0 C 83 % 1 cb 1011,5 hPa 0,0 l/m 15,7 km/h (3 Bft) N-NW 340 0 min 0,000 mm 0 W/m 7,7 C 10,5 C 15,7 km/h (3 Bft) 0,00 %
19.06.2011 10:41 11,0 C 0,0 C 0,0 C 83 % 5 cb 1011,5 hPa 0,0 l/m 19,7 km/h (3 Bft) W-NW 290 0 min 0,000 mm 0 W/m 8,2 C 11,0 C 19,7 km/h (3 Bft) 0,00 %
19.06.2011 10:46 11,4 C 0,0 C 0,0 C 82 % 5 cb 1011,5 hPa 0,0 l/m 19,4 km/h (3 Bft) SW 225 0 min 0,000 mm 0 W/m 8,4 C 11,4 C 19,4 km/h (3 Bft) 0,00 %
19.06.2011 10:51 11,1 C 0,0 C 0,0 C 81 % 3 cb 1011,5 hPa 0,0 l/m 15,1 km/h (3 Bft) W-NW 300 0 min 0,000 mm 0 W/m 8,0 C 11,1 C 15,1 km/h (3 Bft) 0,00 %
19.06.2011 10:56 11,0 C 0,0 C 0,0 C 81 % 2 cb 1011,5 hPa 0,0 l/m 12,4 km/h (3 Bft) N 5 0 min 0,000 mm 0 W/m 7,9 C 11,0 C 12,4 km/h (3 Bft) 0,00 %
19.06.2011 11:01 11,0 C 0,0 C 0,0 C 82 % 0 cb 1011,5 hPa 0,0 l/m 13,0 km/h (3 Bft) W 280 0 min 0,000 mm 0 W/m 8,0 C 11,0 C 13,0 km/h (3 Bft) 0,00 %
19.06.2011 11:06 11,1 C 0,0 C 0,0 C 81 % 0 cb 1011,5 hPa 0,0 l/m 12,1 km/h (2 Bft) W-SW 250 0 min 0,000 mm 0 W/m 8,0 C 11,1 C 12,1 km/h (2 Bft) 0,00 %
19.06.2011 11:11 11,2 C 0,0 C 0,0 C 81 % 0 cb 1011,5 hPa 0,0 l/m 14,8 km/h (3 Bft) W 260 0 min 0,000 mm 0 W/m 8,1 C 11,2 C 14,8 km/h (3 Bft) 0,00 %
19.06.2011 11:16 11,6 C 0,0 C 0,0 C 80 % 4 cb 1011,5 hPa 0,0 l/m 17,6 km/h (3 Bft) SW 225 0 min 0,000 mm 0 W/m 8,3 C 11,6 C 17,6 km/h (3 Bft) 0,00 %
19.06.2011 11:21 12,0 C 0,0 C 0,0 C 79 % 5 cb 1011,5 hPa 0,0 l/m 22,4 km/h (4 Bft) NW 315 0 min 0,000 mm 0 W/m 8,5 C 12,0 C 22,4 km/h (4 Bft) 0,00 %
19.06.2011 11:26 12,1 C 0,0 C 0,0 C 79 % 4 cb 1011,5 hPa 0,0 l/m 12,1 km/h (2 Bft) SW 215 0 min 0,000 mm 0 W/m 8,6 C 12,1 C 12,1 km/h (2 Bft) 0,00 %
19.06.2011 11:31 12,5 C 0,0 C 0,0 C 78 % 5 cb 1011,5 hPa 0,0 l/m 14,8 km/h (3 Bft) S-SW 210 0 min 0,000 mm 0 W/m 8,8 C 12,5 C 14,8 km/h (3 Bft) 0,00 %
19.06.2011 11:36 11,9 C 0,0 C 0,0 C 78 % 0 cb 1011,5 hPa 0,0 l/m 19,1 km/h (3 Bft) NW 305 0 min 0,000 mm 0 W/m 8,2 C 11,9 C 19,1 km/h (3 Bft) 0,00 %
19.06.2011 11:41 11,6 C 0,0 C 0,0 C 79 % 0 cb 1011,5 hPa 0,3 l/m 18,2 km/h (3 Bft) SW 220 0 min 0,000 mm 0 W/m 8,1 C 11,6 C 18,2 km/h (3 Bft) 0,00 %
19.06.2011 11:46 11,4 C 0,0 C 0,0 C 80 % 5 cb 1011,5 hPa 0,0 l/m 16,9 km/h (3 Bft) SW 230 0 min 0,000 mm 0 W/m 8,1 C 11,4 C 16,9 km/h (3 Bft) 0,00 %
19.06.2011 11:51 11,6 C 0,0 C 0,0 C 80 % 2 cb 1011,5 hPa 0,0 l/m 20,6 km/h (4 Bft) NW 315 0 min 0,000 mm 0 W/m 8,3 C 11,6 C 20,6 km/h (4 Bft) 0,00 %
19.06.2011 11:56 11,5 C 0,0 C 0,0 C 81 % 8 cb 1011,5 hPa 0,0 l/m 23,9 km/h (4 Bft) W-SW 255 0 min 0,000 mm 0 W/m 8,4 C 11,5 C 23,9 km/h (4 Bft) 0,00 %
19.06.2011 12:01 11,5 C 0,0 C 0,0 C 80 % 3 cb 1011,5 hPa 0,0 l/m 15,4 km/h (3 Bft) NW 315 0 min 0,000 mm 0 W/m 8,2 C 11,5 C 15,4 km/h (3 Bft) 0,00 %
19.06.2011 12:06 11,4 C 0,0 C 0,0 C 80 % 4 cb 1011,5 hPa 0,3 l/m 13,0 km/h (3 Bft) W 265 0 min 0,000 mm 0 W/m 8,1 C 11,4 C 13,0 km/h (3 Bft) 0,00 %
19.06.2011 12:11 12,0 C 0,0 C 0,0 C 80 % 6 cb 1011,5 hPa 0,0 l/m 20,0 km/h (4 Bft) SW 225 0 min 0,000 mm 0 W/m 8,7 C 12,0 C 20,0 km/h (4 Bft) 0,00 %
19.06.2011 12:16 12,3 C 0,0 C 0,0 C 79 % 5 cb 1011,5 hPa 0,0 l/m 18,8 km/h (3 Bft) W-NW 285 0 min 0,000 mm 0 W/m 8,8 C 12,3 C 18,8 km/h (3 Bft) 0,00 %
19.06.2011 12:21 12,2 C 0,0 C 0,0 C 79 % 0 cb 1011,5 hPa 0,0 l/m 13,0 km/h (3 Bft) N-NO 25 0 min 0,000 mm 0 W/m 8,7 C 12,2 C 13,0 km/h (3 Bft) 0,00 %
19.06.2011 12:26 12,0 C 0,0 C 0,0 C 80 % 1 cb 1012,5 hPa 0,0 l/m 10,9 km/h (2 Bft) W-SW 245 0 min 0,000 mm 0 W/m 8,7 C 12,0 C 10,9 km/h (2 Bft) 0,00 %
19.06.2011 12:31 12,1 C 0,0 C 0,0 C 79 % 4 cb 1012,5 hPa 0,0 l/m 14,2 km/h (3 Bft) NW 305 0 min 0,000 mm 0 W/m 8,6 C 12,1 C 14,2 km/h (3 Bft) 0,00 %
19.06.2011 12:36 12,7 C 0,0 C 0,0 C 78 % 6 cb 1012,5 hPa 0,0 l/m 13,0 km/h (3 Bft) S 170 0 min 0,000 mm 0 W/m 9,0 C 12,7 C 13,0 km/h (3 Bft) 0,00 %
19.06.2011 12:41 12,8 C 0,0 C 0,0 C 77 % 4 cb 1012,5 hPa 0,0 l/m 17,9 km/h (3 Bft) N-NW 330 0 min 0,000 mm 0 W/m 8,9 C 12,8 C 17,9 km/h (3 Bft) 0,00 %
19.06.2011 12:46 12,1 C 0,0 C 0,0 C 77 % 0 cb 1012,5 hPa 0,0 l/m 19,4 km/h (3 Bft) W-NW 285 0 min 0,000 mm 0 W/m 8,2 C 12,1 C 19,4 km/h (3 Bft) 0,00 %
19.06.2011 12:51 12,2 C 0,0 C 0,0 C 78 % 0 cb 1012,5 hPa 0,0 l/m 14,2 km/h (3 Bft) N-NO 15 0 min 0,000 mm 0 W/m 8,5 C 12,2 C 14,2 km/h (3 Bft) 0,00 %
19.06.2011 12:56 12,2 C 0,0 C 0,0 C 78 % 2 cb 1012,5 hPa 0,0 l/m 12,7 km/h (3 Bft) W-NW 285 0 min 0,000 mm 0 W/m 8,5 C 12,2 C 12,7 km/h (3 Bft) 0,00 %
19.06.2011 13:01 11,4 C 0,0 C 0,0 C 80 % 0 cb 1012,5 hPa 0,6 l/m 16,9 km/h (3 Bft) W 280 0 min 0,000 mm 0 W/m 8,1 C 11,4 C 16,9 km/h (3 Bft) 0,00 %
19.06.2011 13:06 10,9 C 0,0 C 0,0 C 81 % 0 cb 1012,5 hPa 0,6 l/m 13,9 km/h (3 Bft) W 280 0 min 0,000 mm 0 W/m 7,8 C 10,9 C 13,9 km/h (3 Bft) 0,00 %
19.06.2011 13:11 10,9 C 0,0 C 0,0 C 82 % 0 cb 1012,5 hPa 0,3 l/m 19,4 km/h (3 Bft) SW 215 0 min 0,000 mm 0 W/m 7,9 C 10,9 C 19,4 km/h (3 Bft) 0,00 %
19.06.2011 13:16 11,0 C 0,0 C 0,0 C 82 % 1 cb 1012,5 hPa 0,0 l/m 14,8 km/h (3 Bft) W-SW 255 0 min 0,000 mm 0 W/m 8,0 C 11,0 C 14,8 km/h (3 Bft) 0,00 %
19.06.2011 13:21 11,2 C 0,0 C 0,0 C 82 % 0 cb 1012,5 hPa 0,0 l/m 16,3 km/h (3 Bft) W 275 0 min 0,000 mm 0 W/m 8,2 C 11,2 C 16,3 km/h (3 Bft) 0,00 %
19.06.2011 13:26 11,5 C 0,0 C 0,0 C 82 % 2 cb 1012,5 hPa 0,0 l/m 12,7 km/h (3 Bft) SW 215 0 min 0,000 mm 0 W/m 8,5 C 11,5 C 12,7 km/h (3 Bft) 0,00 %
19.06.2011 13:31 11,9 C 0,0 C 0,0 C 82 % 6 cb 1012,5 hPa 0,0 l/m 13,0 km/h (3 Bft) W-SW 255 0 min 0,000 mm 0 W/m 8,9 C 11,9 C 13,0 km/h (3 Bft) 0,00 %
19.06.2011 13:36 11,9 C 0,0 C 0,0 C 82 % 1 cb 1012,5 hPa 0,0 l/m 12,7 km/h (3 Bft) SW 235 0 min 0,000 mm 0 W/m 8,9 C 11,9 C 12,7 km/h (3 Bft) 0,00 %
19.06.2011 13:41 11,6 C 0,0 C 0,0 C 81 % 0 cb 1012,5 hPa 0,0 l/m 18,2 km/h (3 Bft) W 275 0 min 0,000 mm 0 W/m 8,5 C 11,6 C 18,2 km/h (3 Bft) 0,00 %
19.06.2011 13:46 11,6 C 0,0 C 0,0 C 81 % 2 cb 1012,5 hPa 0,0 l/m 11,5 km/h (2 Bft) N-NW 345 0 min 0,000 mm 0 W/m 8,5 C 11,6 C 11,5 km/h (2 Bft) 0,00 %
19.06.2011 13:51 11,9 C 0,0 C 0,0 C 82 % 4 cb 1012,5 hPa 0,0 l/m 9,7 km/h (2 Bft) W 265 0 min 0,000 mm 0 W/m 8,9 C 11,9 C 9,7 km/h (2 Bft) 0,00 %
19.06.2011 13:56 12,4 C 0,0 C 0,0 C 82 % 5 cb 1012,5 hPa 0,0 l/m 10,3 km/h (2 Bft) NW 305 0 min 0,000 mm 0 W/m 9,4 C 12,4 C 10,3 km/h (2 Bft) 0,00 %
19.06.2011 14:01 12,2 C 0,0 C 0,0 C 81 % 2 cb 1012,5 hPa 0,0 l/m 12,4 km/h (3 Bft) NW 320 0 min 0,000 mm 0 W/m 9,0 C 12,2 C 12,4 km/h (3 Bft) 0,00 %
19.06.2011 14:06 11,8 C 0,0 C 0,0 C 81 % 0 cb 1012,5 hPa 0,3 l/m 15,1 km/h (3 Bft) W 280 0 min 0,000 mm 0 W/m 8,6 C 11,8 C 15,1 km/h (3 Bft) 0,00 %
19.06.2011 14:11 11,5 C 0,0 C 0,0 C 82 % 0 cb 1012,5 hPa 0,0 l/m 12,1 km/h (2 Bft) W 260 0 min 0,000 mm 0 W/m 8,5 C 11,5 C 12,1 km/h (2 Bft) 0,00 %
19.06.2011 14:16 11,4 C 0,0 C 0,0 C 82 % 1 cb 1012,5 hPa 0,3 l/m 18,2 km/h (3 Bft) W-NW 290 0 min 0,000 mm 0 W/m 8,4 C 11,4 C 18,2 km/h (3 Bft) 0,00 %
19.06.2011 14:21 11,7 C 0,0 C 0,0 C 82 % 7 cb 1012,5 hPa 0,0 l/m 20,9 km/h (4 Bft) W-NW 285 0 min 0,000 mm 0 W/m 8,7 C 11,7 C 20,9 km/h (4 Bft) 0,00 %
19.06.2011 14:26 11,6 C 0,0 C 0,0 C 82 % 6 cb 1012,5 hPa 0,0 l/m 15,4 km/h (3 Bft) W-SW 240 0 min 0,000 mm 0 W/m 8,6 C 11,6 C 15,4 km/h (3 Bft) 0,00 %
19.06.2011 14:31 11,9 C 0,0 C 0,0 C 82 % 4 cb 1012,5 hPa 0,0 l/m 16,3 km/h (3 Bft) SW 220 0 min 0,000 mm 0 W/m 8,9 C 11,9 C 16,3 km/h (3 Bft) 0,00 %
19.06.2011 14:36 12,2 C 0,0 C 0,0 C 81 % 5 cb 1012,5 hPa 0,0 l/m 18,2 km/h (3 Bft) SW 235 0 min 0,000 mm 0 W/m 9,0 C 12,2 C 18,2 km/h (3 Bft) 0,00 %
19.06.2011 14:41 12,6 C 0,0 C 0,0 C 80 % 5 cb 1012,5 hPa 0,0 l/m 18,2 km/h (3 Bft) W-NW 295 0 min 0,000 mm 0 W/m 9,2 C 12,6 C 18,2 km/h (3 Bft) 0,00 %
19.06.2011 14:46 12,8 C 0,0 C 0,0 C 79 % 5 cb 1012,5 hPa 0,0 l/m 24,2 km/h (4 Bft) W 265 0 min 0,000 mm 0 W/m 9,2 C 12,8 C 24,2 km/h (4 Bft) 0,00 %
19.06.2011 14:51 13,3 C 0,0 C 0,0 C 79 % 5 cb 1012,5 hPa 0,0 l/m 15,1 km/h (3 Bft) SW 230 0 min 0,000 mm 0 W/m 9,7 C 13,3 C 15,1 km/h (3 Bft) 0,00 %
19.06.2011 14:56 13,0 C 0,0 C 0,0 C 79 % 1 cb 1013,5 hPa 0,0 l/m 17,6 km/h (3 Bft) N 0 0 min 0,000 mm 0 W/m 9,4 C 13,0 C 17,6 km/h (3 Bft) 0,00 %
19.06.2011 15:01 12,7 C 0,0 C 0,0 C 78 % 0 cb 1013,5 hPa 0,0 l/m 16,0 km/h (3 Bft) W-NW 290 0 min 0,000 mm 0 W/m 9,0 C 12,7 C 16,0 km/h (3 Bft) 0,00 %
19.06.2011 15:06 12,6 C 0,0 C 0,0 C 79 % 0 cb 1013,5 hPa 0,0 l/m 12,7 km/h (3 Bft) SW 225 0 min 0,000 mm 0 W/m 9,1 C 12,6 C 12,7 km/h (3 Bft) 0,00 %
19.06.2011 15:11 13,1 C 0,0 C 0,0 C 77 % 5 cb 1012,5 hPa 0,0 l/m 16,0 km/h (3 Bft) W 275 0 min 0,000 mm 0 W/m 9,2 C 13,1 C 16,0 km/h (3 Bft) 0,00 %
19.06.2011 15:16 13,5 C 0,0 C 0,0 C 76 % 4 cb 1012,5 hPa 0,0 l/m 18,8 km/h (3 Bft) NW 305 0 min 0,000 mm 0 W/m 9,4 C 13,5 C 18,8 km/h (3 Bft) 0,00 %
19.06.2011 15:21 13,9 C 0,0 C 0,0 C 73 % 3 cb 1012,5 hPa 0,0 l/m 27,1 km/h (4 Bft) SW 225 0 min 0,000 mm 0 W/m 9,1 C 13,9 C 27,1 km/h (4 Bft) 0,00 %
19.06.2011 15:26 13,5 C 0,0 C 0,0 C 71 % 6 cb 1013,5 hPa 0,3 l/m 24,5 km/h (4 Bft) SO 145 0 min 0,000 mm 0 W/m 8,3 C 13,5 C 24,5 km/h (4 Bft) 0,00 %
19.06.2011 15:31 13,4 C 0,0 C 0,0 C 71 % 2 cb 1013,5 hPa 0,0 l/m 18,2 km/h (3 Bft) S 170 0 min 0,000 mm 0 W/m 8,3 C 13,4 C 18,2 km/h (3 Bft) 0,00 %
19.06.2011 15:36 13,4 C 0,0 C 0,0 C 72 % 2 cb 1013,5 hPa 0,0 l/m 16,9 km/h (3 Bft) W-NW 290 0 min 0,000 mm 0 W/m 8,5 C 13,4 C 16,9 km/h (3 Bft) 0,00 %
19.06.2011 15:41 13,7 C 0,0 C 0,0 C 72 % 4 cb 1013,5 hPa 0,0 l/m 13,9 km/h (3 Bft) W-SW 245 0 min 0,000 mm 0 W/m 8,7 C 13,7 C 13,9 km/h (3 Bft) 0,00 %
19.06.2011 15:46 14,4 C 0,0 C 0,0 C 72 % 6 cb 1013,5 hPa 0,0 l/m 19,4 km/h (3 Bft) W 265 0 min 0,000 mm 0 W/m 9,4 C 14,4 C 19,4 km/h (3 Bft) 0,00 %
19.06.2011 15:51 14,4 C 0,0 C 0,0 C 71 % 7 cb 1013,5 hPa 0,0 l/m 14,8 km/h (3 Bft) NW 315 0 min 0,000 mm 0 W/m 9,2 C 14,4 C 14,8 km/h (3 Bft) 0,00 %
19.06.2011 15:56 14,4 C 0,0 C 0,0 C 72 % 3 cb 1013,5 hPa 0,0 l/m 15,1 km/h (3 Bft) W 260 0 min 0,000 mm 0 W/m 9,4 C 14,4 C 15,1 km/h (3 Bft) 0,00 %
19.06.2011 16:01 14,0 C 0,0 C 0,0 C 72 % 5 cb 1013,5 hPa 0,0 l/m 12,1 km/h (2 Bft) S-SW 195 0 min 0,000 mm 0 W/m 9,0 C 14,0 C 12,1 km/h (2 Bft) 0,00 %
19.06.2011 16:06 13,8 C 0,0 C 0,0 C 73 % 0 cb 1013,5 hPa 0,0 l/m 13,9 km/h (3 Bft) SW 215 0 min 0,000 mm 0 W/m 9,0 C 13,8 C 13,9 km/h (3 Bft) 0,00 %
19.06.2011 16:11 13,5 C 0,0 C 0,0 C 73 % 0 cb 1013,5 hPa 0,0 l/m 14,8 km/h (3 Bft) S 180 0 min 0,000 mm 0 W/m 8,8 C 13,5 C 14,8 km/h (3 Bft) 0,00 %
19.06.2011 16:16 13,4 C 0,0 C 0,0 C 73 % 0 cb 1013,5 hPa 0,0 l/m 17,2 km/h (3 Bft) S-SW 210 0 min 0,000 mm 0 W/m 8,7 C 13,4 C 17,2 km/h (3 Bft) 0,00 %
19.06.2011 16:21 13,3 C 0,0 C 0,0 C 74 % 0 cb 1013,5 hPa 0,0 l/m 17,2 km/h (3 Bft) SW 230 0 min 0,000 mm 0 W/m 8,8 C 13,3 C 17,2 km/h (3 Bft) 0,00 %
19.06.2011 16:26 13,2 C 0,0 C 0,0 C 76 % 2 cb 1013,5 hPa 0,0 l/m 13,3 km/h (3 Bft) S-SW 200 0 min 0,000 mm 0 W/m 9,1 C 13,2 C 13,3 km/h (3 Bft) 0,00 %
19.06.2011 16:31 13,7 C 0,0 C 0,0 C 76 % 5 cb 1013,5 hPa 0,0 l/m 15,4 km/h (3 Bft) S 185 0 min 0,000 mm 0 W/m 9,5 C 13,7 C 15,4 km/h (3 Bft) 0,00 %
19.06.2011 16:36 14,3 C 0,0 C 0,0 C 73 % 5 cb 1013,5 hPa 0,0 l/m 20,6 km/h (4 Bft) W 270 0 min 0,000 mm 0 W/m 9,5 C 14,3 C 20,6 km/h (4 Bft) 0,00 %
19.06.2011 16:41 14,9 C 0,0 C 0,0 C 71 % 7 cb 1013,5 hPa 0,0 l/m 18,2 km/h (3 Bft) O-SO 110 0 min 0,000 mm 0 W/m 9,7 C 14,9 C 18,2 km/h (3 Bft) 0,00 %
19.06.2011 16:46 14,8 C 0,0 C 0,0 C 71 % 4 cb 1013,5 hPa 0,0 l/m 15,4 km/h (3 Bft) W-SW 255 0 min 0,000 mm 0 W/m 9,6 C 14,8 C 15,4 km/h (3 Bft) 0,00 %
19.06.2011 16:51 14,2 C 0,0 C 0,0 C 71 % 5 cb 1013,5 hPa 0,0 l/m 21,8 km/h (4 Bft) SW 235 0 min 0,000 mm 0 W/m 9,0 C 14,2 C 21,8 km/h (4 Bft) 0,00 %
19.06.2011 16:56 14,5 C 0,0 C 0,0 C 71 % 5 cb 1013,5 hPa 0,0 l/m 14,2 km/h (3 Bft) S 180 0 min 0,000 mm 0 W/m 9,3 C 14,5 C 14,2 km/h (3 Bft) 0,00 %
19.06.2011 17:01 14,4 C 0,0 C 0,0 C 70 % 5 cb 1013,5 hPa 0,0 l/m 14,5 km/h (3 Bft) S-SW 210 0 min 0,000 mm 0 W/m 9,0 C 14,4 C 14,5 km/h (3 Bft) 0,00 %
19.06.2011 17:06 14,3 C 0,0 C 0,0 C 70 % 1 cb 1013,5 hPa 0,0 l/m 18,5 km/h (3 Bft) W 270 0 min 0,000 mm 0 W/m 8,9 C 14,3 C 18,5 km/h (3 Bft) 0,00 %
19.06.2011 17:11 14,2 C 0,0 C 0,0 C 69 % 3 cb 1013,5 hPa 0,0 l/m 19,7 km/h (3 Bft) N-NO 15 0 min 0,000 mm 0 W/m 8,6 C 14,2 C 19,7 km/h (3 Bft) 0,00 %
19.06.2011 17:16 14,2 C 0,0 C 0,0 C 68 % 2 cb 1013,5 hPa 0,0 l/m 12,7 km/h (3 Bft) N 0 0 min 0,000 mm 0 W/m 8,4 C 14,2 C 12,7 km/h (3 Bft) 0,00 %
19.06.2011 17:21 14,1 C 0,0 C 0,0 C 69 % 0 cb 1013,5 hPa 0,0 l/m 21,2 km/h (4 Bft) W 280 0 min 0,000 mm 0 W/m 8,5 C 14,1 C 21,2 km/h (4 Bft) 0,00 %
19.06.2011 17:26 13,4 C 0,0 C 0,0 C 71 % 0 cb 1013,5 hPa 0,0 l/m 22,1 km/h (4 Bft) NW 325 0 min 0,000 mm 0 W/m 8,3 C 13,4 C 22,1 km/h (4 Bft) 0,00 %
19.06.2011 17:31 12,7 C 0,0 C 0,0 C 76 % 0 cb 1013,5 hPa 0,3 l/m 14,2 km/h (3 Bft) N 355 0 min 0,000 mm 0 W/m 8,6 C 12,7 C 14,2 km/h (3 Bft) 0,00 %
19.06.2011 17:36 12,1 C 0,0 C 0,0 C 79 % 0 cb 1013,5 hPa 0,3 l/m 16,3 km/h (3 Bft) W-NW 295 0 min 0,000 mm 0 W/m 8,6 C 12,1 C 16,3 km/h (3 Bft) 0,00 %
19.06.2011 17:41 12,1 C 0,0 C 0,0 C 81 % 2 cb 1014,5 hPa 0,3 l/m 9,7 km/h (2 Bft) W 270 0 min 0,000 mm 0 W/m 8,9 C 12,1 C 9,7 km/h (2 Bft) 0,00 %
19.06.2011 17:46 12,1 C 0,0 C 0,0 C 81 % 0 cb 1014,5 hPa 0,0 l/m 13,9 km/h (3 Bft) W-SW 245 0 min 0,000 mm 0 W/m 8,9 C 12,1 C 13,9 km/h (3 Bft) 0,00 %
19.06.2011 17:51 12,3 C 0,0 C 0,0 C 81 % 1 cb 1014,5 hPa 0,0 l/m 6,1 km/h (2 Bft) W-NW 295 0 min 0,000 mm 0 W/m 9,1 C 12,3 C 6,1 km/h (2 Bft) 0,00 %
19.06.2011 17:56 12,9 C 0,0 C 0,0 C 81 % 3 cb 1014,5 hPa 0,0 l/m 7,3 km/h (2 Bft) W-SW 240 0 min 0,000 mm 0 W/m 9,7 C 12,9 C 7,3 km/h (2 Bft) 0,00 %
19.06.2011 18:01 13,4 C 0,0 C 0,0 C 81 % 4 cb 1014,5 hPa 0,0 l/m 8,5 km/h (2 Bft) N-NW 335 0 min 0,000 mm 0 W/m 10,2 C 13,4 C 8,5 km/h (2 Bft) 0,00 %
19.06.2011 18:06 14,1 C 0,0 C 0,0 C 80 % 4 cb 1014,5 hPa 0,0 l/m 5,1 km/h (1 Bft) W-SW 240 0 min 0,000 mm 0 W/m 10,7 C 14,1 C 5,1 km/h (1 Bft) 0,00 %
19.06.2011 18:11 13,8 C 0,0 C 0,0 C 78 % 3 cb 1013,5 hPa 0,0 l/m 9,7 km/h (2 Bft) W 265 0 min 0,000 mm 0 W/m 10,0 C 13,8 C 9,7 km/h (2 Bft) 0,00 %
19.06.2011 18:16 13,4 C 0,0 C 0,0 C 79 % 0 cb 1013,5 hPa 0,0 l/m 10,6 km/h (2 Bft) NO 40 0 min 0,000 mm 0 W/m 9,8 C 13,4 C 10,6 km/h (2 Bft) 0,00 %
19.06.2011 18:21 13,4 C 0,0 C 0,0 C 79 % 0 cb 1013,5 hPa 0,0 l/m 9,4 km/h (2 Bft) W 275 0 min 0,000 mm 0 W/m 9,8 C 13,4 C 9,4 km/h (2 Bft) 0,00 %
19.06.2011 18:26 13,3 C 0,0 C 0,0 C 79 % 0 cb 1014,5 hPa 0,0 l/m 6,4 km/h (2 Bft) NW 305 0 min 0,000 mm 0 W/m 9,7 C 13,3 C 6,4 km/h (2 Bft) 0,00 %
19.06.2011 18:31 13,2 C 0,0 C 0,0 C 79 % 0 cb 1014,5 hPa 0,0 l/m 9,7 km/h (2 Bft) SW 230 0 min 0,000 mm 0 W/m 9,6 C 13,2 C 9,7 km/h (2 Bft) 0,00 %
19.06.2011 18:36 13,2 C 0,0 C 0,0 C 79 % 0 cb 1014,5 hPa 0,0 l/m 7,6 km/h (2 Bft) SW 230 0 min 0,000 mm 0 W/m 9,6 C 13,2 C 7,6 km/h (2 Bft) 0,00 %
19.06.2011 18:41 13,2 C 0,0 C 0,0 C 78 % 0 cb 1013,5 hPa 0,0 l/m 12,1 km/h (2 Bft) SW 230 0 min 0,000 mm 0 W/m 9,4 C 13,2 C 12,1 km/h (2 Bft) 0,00 %
19.06.2011 18:46 13,1 C 0,0 C 0,0 C 79 % 0 cb 1013,5 hPa 0,0 l/m 7,0 km/h (2 Bft) W 275 0 min 0,000 mm 0 W/m 9,5 C 13,1 C 7,0 km/h (2 Bft) 0,00 %
19.06.2011 18:51 13,0 C 0,0 C 0,0 C 79 % 2 cb 1013,5 hPa 0,0 l/m 10,3 km/h (2 Bft) W 270 0 min 0,000 mm 0 W/m 9,4 C 13,0 C 10,3 km/h (2 Bft) 0,00 %
19.06.2011 18:56 13,2 C 0,0 C 0,0 C 79 % 3 cb 1014,5 hPa 0,0 l/m 13,0 km/h (3 Bft) W-NW 300 0 min 0,000 mm 0 W/m 9,6 C 13,2 C 13,0 km/h (3 Bft) 0,00 %
19.06.2011 19:01 13,1 C 0,0 C 0,0 C 79 % 0 cb 1014,5 hPa 0,0 l/m 6,4 km/h (2 Bft) N 0 0 min 0,000 mm 0 W/m 9,5 C 13,1 C 6,4 km/h (2 Bft) 0,00 %
19.06.2011 19:06 13,0 C 0,0 C 0,0 C 79 % 0 cb 1014,5 hPa 0,0 l/m 8,5 km/h (2 Bft) NW 315 0 min 0,000 mm 0 W/m 9,4 C 13,0 C 8,5 km/h (2 Bft) 0,00 %
19.06.2011 19:11 13,0 C 0,0 C 0,0 C 79 % 0 cb 1014,5 hPa 0,0 l/m 6,1 km/h (2 Bft) N-NW 335 0 min 0,000 mm 0 W/m 9,4 C 13,0 C 6,1 km/h (2 Bft) 0,00 %
19.06.2011 19:16 13,0 C 0,0 C 0,0 C 79 % 0 cb 1014,5 hPa 0,0 l/m 9,4 km/h (2 Bft) W-NW 295 0 min 0,000 mm 0 W/m 9,4 C 13,0 C 9,4 km/h (2 Bft) 0,00 %
19.06.2011 19:21 13,1 C 0,0 C 0,0 C 78 % 1 cb 1014,5 hPa 0,0 l/m 12,1 km/h (2 Bft) W 275 0 min 0,000 mm 0 W/m 9,4 C 13,1 C 12,1 km/h (2 Bft) 0,00 %
19.06.2011 19:26 13,8 C 0,0 C 0,0 C 77 % 4 cb 1013,5 hPa 0,0 l/m 8,5 km/h (2 Bft) W 260 0 min 0,000 mm 0 W/m 9,8 C 13,8 C 8,5 km/h (2 Bft) 0,00 %
19.06.2011 19:31 14,2 C 0,0 C 0,0 C 77 % 2 cb 1013,5 hPa 0,0 l/m 8,8 km/h (2 Bft) W-SW 250 0 min 0,000 mm 0 W/m 10,2 C 14,2 C 8,8 km/h (2 Bft) 0,00 %
19.06.2011 19:36 13,9 C 0,0 C 0,0 C 75 % 2 cb 1013,5 hPa 0,0 l/m 10,9 km/h (2 Bft) S 190 0 min 0,000 mm 0 W/m 9,5 C 13,9 C 10,9 km/h (2 Bft) 0,00 %
19.06.2011 19:41 13,5 C 0,0 C 0,0 C 77 % 0 cb 1014,5 hPa 0,0 l/m 7,0 km/h (2 Bft) W-SW 245 0 min 0,000 mm 0 W/m 9,5 C 13,5 C 7,0 km/h (2 Bft) 0,00 %
19.06.2011 19:46 13,4 C 0,0 C 0,0 C 76 % 0 cb 1014,5 hPa 0,0 l/m 10,3 km/h (2 Bft) W 265 0 min 0,000 mm 0 W/m 9,3 C 13,4 C 10,3 km/h (2 Bft) 0,00 %
19.06.2011 19:51 13,5 C 0,0 C 0,0 C 74 % 0 cb 1014,5 hPa 0,3 l/m 14,8 km/h (3 Bft) W-SW 255 0 min 0,000 mm 0 W/m 9,0 C 13,5 C 14,8 km/h (3 Bft) 0,00 %
19.06.2011 19:56 13,4 C 0,0 C 0,0 C 72 % 0 cb 1014,5 hPa 0,0 l/m 22,4 km/h (4 Bft) SO 125 0 min 0,000 mm 0 W/m 8,5 C 13,4 C 22,4 km/h (4 Bft) 0,00 %
19.06.2011 20:01 13,0 C 0,0 C 0,0 C 72 % 0 cb 1014,5 hPa 0,0 l/m 19,1 km/h (3 Bft) NW 325 0 min 0,000 mm 0 W/m 8,1 C 13,0 C 19,1 km/h (3 Bft) 0,00 %
19.06.2011 20:06 12,6 C 0,0 C 0,0 C 72 % 0 cb 1014,5 hPa 0,0 l/m 21,5 km/h (4 Bft) O-SO 120 0 min 0,000 mm 0 W/m 7,7 C 12,6 C 21,5 km/h (4 Bft) 0,00 %
19.06.2011 20:11 12,4 C 0,0 C 0,0 C 72 % 0 cb 1014,5 hPa 0,0 l/m 19,7 km/h (3 Bft) SO 130 0 min 0,000 mm 0 W/m 7,5 C 12,4 C 19,7 km/h (3 Bft) 0,00 %
19.06.2011 20:16 12,2 C 0,0 C 0,0 C 73 % 0 cb 1014,5 hPa 0,0 l/m 10,3 km/h (2 Bft) S-SO 165 0 min 0,000 mm 0 W/m 7,5 C 12,2 C 10,3 km/h (2 Bft) 0,00 %
19.06.2011 20:21 12,2 C 0,0 C 0,0 C 72 % 0 cb 1014,5 hPa 0,0 l/m 11,8 km/h (2 Bft) W-NW 295 0 min 0,000 mm 0 W/m 7,3 C 12,2 C 11,8 km/h (2 Bft) 0,00 %
19.06.2011 20:26 12,2 C 0,0 C 0,0 C 73 % 0 cb 1014,5 hPa 0,0 l/m 10,6 km/h (2 Bft) SW 215 0 min 0,000 mm 0 W/m 7,5 C 12,2 C 10,6 km/h (2 Bft) 0,00 %
19.06.2011 20:31 12,2 C 0,0 C 0,0 C 73 % 0 cb 1014,5 hPa 0,0 l/m 9,1 km/h (2 Bft) NW 310 0 min 0,000 mm 0 W/m 7,5 C 12,2 C 9,1 km/h (2 Bft) 0,00 %
19.06.2011 20:36 12,2 C 0,0 C 0,0 C 73 % 0 cb 1014,5 hPa 0,0 l/m 8,2 km/h (2 Bft) NW 305 0 min 0,000 mm 0 W/m 7,5 C 12,2 C 8,2 km/h (2 Bft) 0,00 %
19.06.2011 20:41 12,1 C 0,0 C 0,0 C 73 % 0 cb 1014,5 hPa 0,0 l/m 8,2 km/h (2 Bft) SW 235 0 min 0,000 mm 0 W/m 7,4 C 12,1 C 8,2 km/h (2 Bft) 0,00 %
19.06.2011 20:46 12,1 C 0,0 C 0,0 C 73 % 0 cb 1014,5 hPa 0,0 l/m 7,6 km/h (2 Bft) SW 220 0 min 0,000 mm 0 W/m 7,4 C 12,1 C 7,6 km/h (2 Bft) 0,00 %
19.06.2011 20:51 12,1 C 0,0 C 0,0 C 74 % 0 cb 1014,5 hPa 0,0 l/m 7,6 km/h (2 Bft) O 80 0 min 0,000 mm 0 W/m 7,6 C 12,1 C 7,6 km/h (2 Bft) 0,00 %
19.06.2011 20:56 12,0 C 0,0 C 0,0 C 74 % 0 cb 1015,5 hPa 0,0 l/m 10,6 km/h (2 Bft) W-NW 285 0 min 0,000 mm 0 W/m 7,5 C 12,0 C 10,6 km/h (2 Bft) 0,00 %
19.06.2011 21:01 12,0 C 0,0 C 0,0 C 74 % 0 cb 1015,5 hPa 0,0 l/m 7,6 km/h (2 Bft) N 355 0 min 0,000 mm 0 W/m 7,5 C 12,0 C 7,6 km/h (2 Bft) 0,00 %
19.06.2011 21:06 11,9 C 0,0 C 0,0 C 75 % 0 cb 1015,5 hPa 0,0 l/m 3,9 km/h (1 Bft) W 270 0 min 0,000 mm 0 W/m 7,6 C 11,9 C 3,9 km/h (1 Bft) 0,00 %
19.06.2011 21:11 11,8 C 0,0 C 0,0 C 75 % 0 cb 1015,5 hPa 0,0 l/m 10,3 km/h (2 Bft) NW 305 0 min 0,000 mm 0 W/m 7,5 C 11,8 C 10,3 km/h (2 Bft) 0,00 %
19.06.2011 21:16 11,9 C 0,0 C 0,0 C 75 % 0 cb 1015,5 hPa 0,0 l/m 6,1 km/h (2 Bft) W-NW 295 0 min 0,000 mm 0 W/m 7,6 C 11,9 C 6,1 km/h (2 Bft) 0,00 %
19.06.2011 21:21 11,8 C 0,0 C 0,0 C 75 % 0 cb 1015,5 hPa 0,0 l/m 8,5 km/h (2 Bft) SW 235 0 min 0,000 mm 0 W/m 7,5 C 11,8 C 8,5 km/h (2 Bft) 0,00 %
19.06.2011 21:26 11,8 C 0,0 C 0,0 C 74 % 0 cb 1015,5 hPa 0,0 l/m 6,7 km/h (2 Bft) W-SW 255 0 min 0,000 mm 0 W/m 7,3 C 11,8 C 6,7 km/h (2 Bft) 0,00 %
19.06.2011 21:31 11,8 C 0,0 C 0,0 C 74 % 0 cb 1015,5 hPa 0,0 l/m 10,3 km/h (2 Bft) W-NW 300 0 min 0,000 mm 0 W/m 7,3 C 11,8 C 10,3 km/h (2 Bft) 0,00 %
19.06.2011 21:36 11,7 C 0,0 C 0,0 C 74 % 0 cb 1015,5 hPa 0,0 l/m 7,9 km/h (2 Bft) W-SW 255 0 min 0,000 mm 0 W/m 7,2 C 11,7 C 7,9 km/h (2 Bft) 0,00 %
19.06.2011 21:41 11,6 C 0,0 C 0,0 C 74 % 0 cb 1015,5 hPa 0,0 l/m 5,7 km/h (1 Bft) SW 230 0 min 0,000 mm 0 W/m 7,1 C 11,6 C 5,7 km/h (1 Bft) 0,00 %
19.06.2011 21:46 11,6 C 0,0 C 0,0 C 75 % 0 cb 1015,5 hPa 0,0 l/m 3,6 km/h (1 Bft) W-SW 250 0 min 0,000 mm 0 W/m 7,3 C 11,6 C 3,6 km/h (1 Bft) 0,00 %
19.06.2011 21:51 11,5 C 0,0 C 0,0 C 75 % 0 cb 1015,5 hPa 0,0 l/m 3,0 km/h (1 Bft) SW 230 0 min 0,000 mm 0 W/m 7,2 C 11,5 C 3,0 km/h (1 Bft) 0,00 %
19.06.2011 21:56 11,4 C 0,0 C 0,0 C 76 % 0 cb 1015,5 hPa 0,0 l/m 3,6 km/h (1 Bft) W-SW 255 0 min 0,000 mm 0 W/m 7,3 C 11,4 C 3,6 km/h (1 Bft) 0,00 %
19.06.2011 22:01 11,5 C 0,0 C 0,0 C 76 % 0 cb 1015,5 hPa 0,0 l/m 4,8 km/h (1 Bft) W 265 0 min 0,000 mm 0 W/m 7,4 C 11,5 C 4,8 km/h (1 Bft) 0,00 %
19.06.2011 22:06 11,6 C 0,0 C 0,0 C 75 % 0 cb 1015,5 hPa 0,0 l/m 3,6 km/h (1 Bft) W-NW 300 0 min 0,000 mm 0 W/m 7,3 C 11,6 C 3,6 km/h (1 Bft) 0,00 %
19.06.2011 22:11 11,5 C 0,0 C 0,0 C 75 % 0 cb 1015,5 hPa 0,0 l/m 3,3 km/h (1 Bft) W-SW 255 0 min 0,000 mm 0 W/m 7,2 C 11,5 C 3,3 km/h (1 Bft) 0,00 %
19.06.2011 22:16 11,5 C 0,0 C 0,0 C 76 % 0 cb 1015,5 hPa 0,0 l/m 0,6 km/h (0 Bft) NW 325 0 min 0,000 mm 0 W/m 7,4 C 11,5 C 0,6 km/h (0 Bft) 0,00 %
19.06.2011 22:21 11,5 C 0,0 C 0,0 C 76 % 0 cb 1015,5 hPa 0,0 l/m 0,0 km/h (0 Bft) SW 225 0 min 0,000 mm 0 W/m 7,4 C 11,5 C 0,0 km/h (0 Bft) 0,00 %
19.06.2011 22:26 11,5 C 0,0 C 0,0 C 76 % 0 cb 1015,5 hPa 0,0 l/m 0,0 km/h (0 Bft) SW 230 0 min 0,000 mm 0 W/m 7,4 C 11,5 C 0,0 km/h (0 Bft) 0,00 %
19.06.2011 22:31 11,4 C 0,0 C 0,0 C 76 % 0 cb 1015,5 hPa 0,0 l/m 0,0 km/h (0 Bft) SO 125 0 min 0,000 mm 0 W/m 7,3 C 11,4 C 0,0 km/h (0 Bft) 0,00 %
19.06.2011 22:36 11,3 C 0,0 C 0,0 C 77 % 0 cb 1015,5 hPa 0,0 l/m 0,0 km/h (0 Bft) O-NO 65 0 min 0,000 mm 0 W/m 7,4 C 11,3 C 0,0 km/h (0 Bft) 0,00 %
19.06.2011 22:41 11,2 C 0,0 C 0,0 C 78 % 0 cb 1015,5 hPa 0,0 l/m 0,0 km/h (0 Bft) SO 125 0 min 0,000 mm 0 W/m 7,5 C 11,2 C 0,0 km/h (0 Bft) 0,00 %
19.06.2011 22:46 11,2 C 0,0 C 0,0 C 78 % 0 cb 1015,5 hPa 0,0 l/m 0,0 km/h (0 Bft) SO 125 0 min 0,000 mm 0 W/m 7,5 C 11,2 C 0,0 km/h (0 Bft) 0,00 %
19.06.2011 22:51 11,1 C 0,0 C 0,0 C 78 % 0 cb 1015,5 hPa 0,0 l/m 0,0 km/h (0 Bft) N 10 0 min 0,000 mm 0 W/m 7,4 C 11,1 C 0,0 km/h (0 Bft) 0,00 %
19.06.2011 22:56 11,0 C 0,0 C 0,0 C 79 % 0 cb 1015,5 hPa 0,0 l/m 0,0 km/h (0 Bft) NW 310 0 min 0,000 mm 0 W/m 7,5 C 11,0 C 0,0 km/h (0 Bft) 0,00 %
19.06.2011 23:01 11,0 C 0,0 C 0,0 C 79 % 0 cb 1015,5 hPa 0,0 l/m 0,0 km/h (0 Bft) NW 310 0 min 0,000 mm 0 W/m 7,5 C 11,0 C 0,0 km/h (0 Bft) 0,00 %
19.06.2011 23:06 10,9 C 0,0 C 0,0 C 80 % 0 cb 1015,5 hPa 0,0 l/m 0,0 km/h (0 Bft) NW 305 0 min 0,000 mm 0 W/m 7,6 C 10,9 C 0,0 km/h (0 Bft) 0,00 %
19.06.2011 23:11 10,8 C 0,0 C 0,0 C 80 % 0 cb 1015,5 hPa 0,0 l/m 0,0 km/h (0 Bft) NW 305 0 min 0,000 mm 0 W/m 7,5 C 10,8 C 0,0 km/h (0 Bft) 0,00 %
19.06.2011 23:16 10,8 C 0,0 C 0,0 C 80 % 0 cb 1015,5 hPa 0,0 l/m 0,0 km/h (0 Bft) NW 305 0 min 0,000 mm 0 W/m 7,5 C 10,8 C 0,0 km/h (0 Bft) 0,00 %
19.06.2011 23:21 10,7 C 0,0 C 0,0 C 80 % 0 cb 1015,5 hPa 0,0 l/m 0,0 km/h (0 Bft) NW 305 0 min 0,000 mm 0 W/m 7,4 C 10,7 C 0,0 km/h (0 Bft) 0,00 %
19.06.2011 23:26 10,6 C 0,0 C 0,0 C 80 % 0 cb 1016,5 hPa 0,0 l/m 0,0 km/h (0 Bft) NW 305 0 min 0,000 mm 0 W/m 7,3 C 10,6 C 0,0 km/h (0 Bft) 0,00 %
19.06.2011 23:31 10,5 C 0,0 C 0,0 C 81 % 0 cb 1016,5 hPa 0,0 l/m 0,0 km/h (0 Bft) NW 305 0 min 0,000 mm 0 W/m 7,4 C 10,5 C 0,0 km/h (0 Bft) 0,00 %
19.06.2011 23:36 10,4 C 0,0 C 0,0 C 81 % 0 cb 1016,5 hPa 0,0 l/m 0,0 km/h (0 Bft) NW 310 0 min 0,000 mm 0 W/m 7,3 C 10,4 C 0,0 km/h (0 Bft) 0,00 %
19.06.2011 23:41 10,3 C 0,0 C 0,0 C 81 % 0 cb 1015,5 hPa 0,0 l/m 0,0 km/h (0 Bft) S 190 0 min 0,000 mm 0 W/m 7,2 C 10,3 C 0,0 km/h (0 Bft) 0,00 %
19.06.2011 23:46 10,2 C 0,0 C 0,0 C 81 % 0 cb 1015,5 hPa 0,0 l/m 0,0 km/h (0 Bft) W-NW 300 0 min 0,000 mm 0 W/m 7,1 C 10,2 C 0,0 km/h (0 Bft) 0,00 %
19.06.2011 23:51 10,2 C 0,0 C 0,0 C 81 % 0 cb 1015,5 hPa 0,0 l/m 0,0 km/h (0 Bft) NW 310 0 min 0,000 mm 0 W/m 7,1 C 10,2 C 0,0 km/h (0 Bft) 0,00 %
19.06.2011 23:56 10,3 C 0,0 C 0,0 C 82 % 0 cb 1015,5 hPa 0,0 l/m 0,0 km/h (0 Bft) NW 310 0 min 0,000 mm 0 W/m 7,4 C 10,3 C 0,0 km/h (0 Bft) 0,00 %
_ Min-Zeit 00:01 00:01 00:01 17:16 00:01 03:56 - 00:01 - - - - - 07:51 08:21 00:01 00:01
Minimum _ 9,5 C 0,0 C 0,0 C 68 % 0 cb 1008,5 hPa - 0,0 km/h (0 Bft) - - - - - 6,8 C 6,8 C 0,0 km/h (0 Bft) 0,00 %
_ Max-Zeit 16:41 00:01 00:01 00:01 11:56 23:26 13:01 08:21 - - 00:01 00:01 00:01 18:06 16:41 08:21 00:01
Maximum _ 14,9 C 0,0 C 0,0 C 84 % 8 cb 1016,5 hPa 0,6 l/m 27,3 km/h
W-SW (4 Bft)
- - 0 min 0,000 mm 0 W/m 10,7 C 14,9 C 27,3 km/h
W-SW (4 Bft)
0,00 %
Durchschnitt _ 11,3 C 0,0 C 0,0 C 79 % 1 cb 1011,9 hPa #5,0 l/m 11,4 km/h (2 Bft) W-SW - #0 min. #0,000 mm 0 W/m 7,9 C 11,0 C 11,4 km/h (2 Bft) 0,00 %
Wetterstation Gdesweiler